Showing default

ALSAT 1B, 41785

Orbit data source: Space-Track

ALSAT 1B, 41785 is a payload satellite owned by ASAL (DZ) in SSO that was launched on Mon, 26 Sep 2016 UTC via a PSLV launch vehicle from the Sirharikota (SRI). Payload-class satellites include a variety of spacecraft equipped with specific instruments for various scientific and technological missions. These include communications satellites like Starlink; space stations such as the ISS; scientific satellites like the Hubble; Earth observation satellites from companies like Planet Labs, Umbra, and HawkEye 360; GPS; miniature CubeSats for education and research; and military/defense satellites.

Loading next visibility...
Identifier
41785, 2016-059C
Orbit
SSO
Country
Flag of DZDZ / ALG
Related business
Manufacturer
SSTL (Astrium)
Mission
Operational Civil Imaging
Bus & Motor
SSTL-100, Unknown motor
Mass
103 kg wet, 103 kg dry
Launch date (UTC)
2016-09-26 (10 years ago)
Launch vehicle
PSLV
Launch site
Sirharikota (SRI)
Object type
Payload
Rocket body
Debris
Shape & HBR
Box + 1 Ant, 3.3 m
Radar Cross Section
0.862 m², Medium (>0.1 m² and < 1m²)

Expand to show TLE details & history
Last TLE update: 4 hours ago

TLE from 4 hours ago
0 ALSAT 1B
1 41785U 16059C   26127.32581012  .00000403  00000-0  71260-4 0  9993
2 41785  97.7766 137.8527 0009556   7.3343 352.8003 14.72243997514567
Epoch: 2026-05-07T07:49Z
TLE epoch observation values (Epoch: 2026-05-07T07:49:09.994Z)
Latitude
-0.00003°
Longitude
155.3875°
Altitude
650.26 km
Speed
7.536 km/s
True Right ascension
09h 11m 24s
True Declination
0° 00' 00"
Sunlit
Object was in daylight at epoch
Visualization orbit readout
Latitude
Unknown
Longitude
Unknown
Altitude
Unknown
Speed
Unknown
Apparent Right ascension
Unknown
Apparent Declination
Unknown
Sunlit
N/A
Visualization observer readout
Local Sidereal Time
19:57:14
Azimuth
Unknown
Elevation
Unknown
Doppler factor
Unknown
Orbital elements
Apogee altitude
657.676 km
Perigee altitude
644.242 km
Semi-major axis
7,029.096 km
Eccentricity
0.00096
Inclination
97.7766°
RAAN
137.8527°
Arg. of periapsis
7.3343°
True anomaly
352.78656°
Mean anomaly
352.8003°
Eccentric anomaly
352.79343°
Mean motion
3.68293 °/min
Orbital period
97.75 mins
BSTAR
0.00007126
Loading maneuver chart data...
Computing Atmospheric mass density...
Loading historical data...
Loading historical data...
Loading historical data...
Loading historical data...
Loading historical data...
Loading historical data...
Loading historical data...

Documentation

Showing up to 5 results
|